Home   Weather   St. George   Past weeks

Flag for USA Past Weather in St. George, Utah, USA — Yesterday and Last 2 Weeks

Now
30 °F

Overcast.


Feels Like: 24 °F
Forecast: 32 / 49 °F
Wind: 6 mph from South

Location: Saint George

Current Time: Dec 8, 2016 at 5:11:06 am

Latest Report: Dec 8, 2016 at 4:35 am


Visibility: 10 mi

Pressure: 30.27 "Hg (27.23 "Hg at 842m altitude)

Humidity: 43%

Dew Point: 10 °F

Location of St. GeorgeLocation

Past Weather in St. George — Graph

°F

St. George Temperature Yesterday

Maximum temperature yesterday: 48 °F (at 2:55 pm)
Minimum temperature yesterday: 30 °F (at 5:55 am)
Average temperature yesterday: 39 °F

High & Low Weather Summary for the Past Weeks

 TemperatureHumidityPressure
High64 °F (Nov 26, 2:35 pm)81% (Nov 23, 8:55 am)30.47 "Hg (Nov 23, 8:55 am)
Low27 °F (Nov 30, 6:55 am)20% (Dec 7, 3:55 pm)29.73 "Hg (Nov 26, 8:15 pm)
Average42 °F45%30.08 "Hg
* Reported Nov 23 3:15 am — Dec 8 3:55 am, St. George, Weather by CustomWeather, © 2016

Note: Actual official high and low records may vary slightly from our data, if they occured in-between our weather recording intervals... More about our weather records

Advertising

St. George Weather History for the Previous 24 Hours

Scroll right to see more
 ConditionsComfort  
Time TempWeatherWind HumidityBarometerVisibility
3:55 am
Thu, Dec 8
32 °FOvercast.No wind40%30.28 "Hg10 mi
3:35 am32 °FOvercast.No wind40%30.28 "Hg10 mi
3:15 am30 °FOvercast.3 mph43%30.28 "Hg10 mi
2:55 am30 °FOvercast.6 mph43%30.28 "Hg10 mi
2:35 am30 °FPassing clouds.3 mph43%30.28 "Hg10 mi
2:15 am30 °FPassing clouds.No wind43%30.28 "Hg10 mi
1:55 am30 °FChilly.No wind26%30.26 "Hg10 mi
11:55 pm
Wed, Dec 7
34 °FClear.3 mph35%30.29 "Hg10 mi
11:35 pm32 °FClear.3 mph37%30.28 "Hg10 mi
11:15 pm34 °FClear.7 mph32%30.27 "Hg10 mi
10:55 pm34 °FClear.3 mph35%30.27 "Hg10 mi
10:35 pm36 °FClear.6 mph32%30.26 "Hg10 mi
10:15 pm36 °FClear.No wind32%30.26 "Hg10 mi
9:55 pm37 °FClear.No wind30%30.25 "Hg10 mi
9:35 pm37 °FClear.3 mph30%30.25 "Hg10 mi
9:15 pm37 °FClear.6 mph30%30.24 "Hg10 mi
8:55 pm37 °FClear.8 mph30%30.24 "Hg10 mi
8:35 pm37 °FClear.10 mph30%30.23 "Hg10 mi
7:35 pm39 °FClear.10 mph28%30.22 "Hg10 mi
7:15 pm39 °FClear.8 mph28%30.22 "Hg10 mi
6:55 pm41 °FClear.12 mph26%30.20 "Hg10 mi
6:35 pm41 °FClear.13 mph26%30.19 "Hg10 mi
6:15 pm43 °FClear.10 mph24%30.18 "Hg10 mi
5:55 pm39 °FClear.8 mph24%30.18 "Hg10 mi
5:35 pm45 °FClear.3 mph21%30.18 "Hg10 mi
5:15 pm46 °FSunny.3 mph20%30.17 "Hg10 mi
4:55 pm46 °FSunny.5 mph20%30.17 "Hg10 mi
4:35 pm46 °FSunny.5 mph20%30.17 "Hg10 mi
4:15 pm46 °FSunny.5 mph20%30.16 "Hg10 mi
3:55 pm46 °FSunny.6 mph20%30.16 "Hg10 mi
3:35 pm46 °FSunny.3 mph21%30.16 "Hg10 mi
3:15 pm46 °FSunny.No wind21%30.16 "Hg10 mi
2:55 pm48 °FSunny.No wind21%30.16 "Hg10 mi
2:35 pm46 °FSunny.No wind23%30.16 "Hg10 mi
2:15 pm46 °FSunny.5 mph23%30.16 "Hg10 mi
1:55 pm46 °FSunny.No wind23%30.16 "Hg10 mi
1:35 pm46 °FSunny.No wind25%30.17 "Hg10 mi
1:15 pm45 °FSunny.3 mph25%30.18 "Hg10 mi
12:55 pm45 °FSunny.No wind25%30.18 "Hg10 mi
12:35 pm43 °FSunny.No wind26%30.19 "Hg10 mi
12:15 pm43 °FSunny.5 mph29%30.19 "Hg10 mi
11:55 am43 °FSunny.No wind26%30.20 "Hg10 mi
11:35 am41 °FSunny.No wind28%30.20 "Hg10 mi
11:15 am41 °FSunny.3 mph31%30.21 "Hg10 mi
10:55 am39 °FSunny.No wind30%30.20 "Hg10 mi
10:35 am37 °FSunny.No wind38%30.20 "Hg10 mi
10:15 am39 °FSunny.5 mph33%30.20 "Hg10 mi
9:55 am39 °FSunny.No wind33%30.19 "Hg10 mi
9:35 am37 °FSunny.3 mph35%30.18 "Hg10 mi
9:15 am37 °FSunny.5 mph33%30.17 "Hg10 mi
8:55 am36 °FSunny.No wind38%30.16 "Hg10 mi
8:35 am34 °FSunny.6 mph38%30.15 "Hg10 mi
8:15 am32 °FSunny.7 mph40%30.15 "Hg10 mi
7:15 am30 °FClear.6 mph40%30.12 "Hg10 mi
6:55 am32 °FClear.6 mph37%30.11 "Hg10 mi
6:15 am30 °FClear.9 mph43%30.09 "Hg10 mi
5:55 am30 °FClear.6 mph43%30.08 "Hg10 mi
5:35 am32 °FClear.9 mph40%30.07 "Hg10 mi
5:15 am32 °FClear.10 mph40%30.06 "Hg10 mi
Weather by CustomWeather, © 2016

See weather overviewHow to use our weather pages